Regional Weather Roundup
Issued by NWS Charleston, WV

Home | Current Version | Previous Version | Graphics & Text | Print | Product List | Glossary On
Versions: 1 2 3 4 5 6 7 8 9 10 11 12 13 14 15 16 17 18 19 20 21 22 23 24 25 26 27 28 29 30 31 32 33 34 35 36 37 38 39 40 41 42 43 44 45 46 47 48 49 50
000
ASUS41 KRLX 021410
RWRRLX
West Virginia Regional Weather Roundup
National Weather Service Charleston WV
1000 AM EDT SAT MAY 02 2015

Note: "fair" indicates few or no clouds below 12,000 feet with no
significant weather and/or obstructions to visibility.

WVZ003-021500-
Northern Panhandle of West Virginia

CITY           SKY/WX    TMP DP  RH WIND       PRES   REMARKS
WHEELING       MOSUNNY   60  41  49 CALM      30.11S
$$

WVZ009-021500-
Northwest West Virginia

CITY           SKY/WX    TMP DP  RH WIND       PRES   REMARKS
PARKERSBURG    MOSUNNY   59  42  53 CALM      30.16S
$$

WVZ006-021500-
Western West Virginia

CITY           SKY/WX    TMP DP  RH WIND       PRES   REMARKS
HUNTINGTON     MOSUNNY   56  47  71 CALM      30.14S
$$

WVZ015-021500-
West Central West Virginia

CITY           SKY/WX    TMP DP  RH WIND       PRES   REMARKS
CHARLESTON     MOSUNNY   57  46  66 W5        30.14S
$$

WVZ022-031-021500-
North Central West Virginia

CITY           SKY/WX    TMP DP  RH WIND       PRES   REMARKS
CLARKSBURG     PTSUNNY   59  44  57 CALM      30.11S
MORGANTOWN     SUNNY     58  39  49 CALM      30.11F
$$

WVZ025-035-042-045-021500-
Southern West Virginia

CITY           SKY/WX    TMP DP  RH WIND       PRES   REMARKS
BECKLEY        MOSUNNY   51  42  71 W3        30.15R
LOGAN            N/A     50  50 100 CALM      30.12S
BLUEFIELD      SUNNY     56  43  61 VRB6      30.15R
LEWISBURG      PTSUNNY   56  45  66 CALM      30.12S
$$

WVZ047-021500-
Northern Mountains of West Virginia

CITY           SKY/WX    TMP DP  RH WIND       PRES   REMARKS
ELKINS         SUNNY     57  42  57 VRB5      30.12S
$$

WVZ052-021500-
Eastern Panhandle of West Virginia

CITY           SKY/WX    TMP DP  RH WIND       PRES   REMARKS
MARTINSBURG    SUNNY     65  43  44 N8        30.04S
PETERSBURG     SUNNY     60  43  52 CALM      30.09S
$$


USA.gov is the U.S. government's official web portal to all federal, state and local government web resources and services.